FW4250 Weather Reports


Display with metric or nautical units.
time (UTC)temp
F
wind
direction
speed
MPH
gust
MPH
rain 1hr
in
rain 24hr
in
rain mn
in
humidity
%
barometer
mb
20220520225024 61 224 2.0 6.0 0.00 0.02 0.02 79 983.3
20220520224523 61 223 2.0 6.0 0.00 0.02 0.02 79 983.3
20220520224023 61 178 0.0 6.0 0.00 0.02 0.02 79 983.5
20220520223527 61 171 0.0 6.0 0.00 0.02 0.02 79 983.4
20220520223025 61 191 1.0 5.0 0.00 0.02 0.02 79 983.5
20220520222527 61 239 2.0 5.0 0.00 0.02 0.02 80 983.5
20220520222023 61 185 1.0 6.0 0.00 0.02 0.02 80 983.5
20220520221524 61 184 3.0 5.0 0.00 0.02 0.02 79 983.6
20220520221021 61 207 3.0 5.0 0.00 0.02 0.02 80 983.6
20220520220521 61 223 1.0 5.0 0.00 0.02 0.02 80 983.5
20220520220026 61 227 3.0 5.0 0.00 0.02 0.02 80 983.5
20220520215517 61 207 1.0 5.0 0.00 0.02 0.02 81 983.5
20220520215017 61 246 1.0 4.0 0.00 0.02 0.02 81 983.6
20220520214517 60 232 0.0 6.0 0.00 0.02 0.02 81 983.5
20220520214018 60 272 2.0 6.0 0.00 0.02 0.02 81 983.5
20220520213515 60 228 2.0 8.0 0.00 0.02 0.02 82 983.5
20220520213116 60 196 0.0 8.0 0.00 0.02 0.02 82 983.5
20220520212555 60 213 3.0 7.0 0.00 0.02 0.02 81 983.5
20220520212101 60 315 2.0 4.0 0.00 0.02 0.02 82 983.6
20220520211555 60 225 0.0 5.0 0.00 0.02 0.02 81 983.6
20220520211055 60 229 2.0 5.0 0.00 0.02 0.02 82 983.6
20220520210555 60 213 1.0 6.0 0.00 0.02 0.02 82 983.5
20220520210054 60 213 2.0 4.0 0.00 0.02 0.02 82 983.4
20220520205555 60 220 2.0 5.0 0.00 0.02 0.02 82 983.5
20220520205057 60 193 2.0 5.0 0.00 0.02 0.02 82 983.6
20220520204555 60 263 1.0 5.0 0.00 0.02 0.02 83 983.6
20220520204058 60 209 2.0 6.0 0.00 0.02 0.02 83 983.6
20220520203554 60 209 2.0 6.0 0.00 0.02 0.02 83 983.6
20220520203100 60 209 2.0 6.0 0.00 0.02 0.02 83 983.5
20220520202554 59 185 2.0 6.0 0.00 0.02 0.02 84 983.5
20220520202051 59 194 3.0 6.0 0.00 0.02 0.02 84 983.3
20220520201551 59 212 4.0 6.0 0.00 0.02 0.02 84 983.5
20220520201052 59 221 3.0 7.0 0.00 0.02 0.02 85 983.4
20220520200552 59 201 3.0 7.0 0.00 0.02 0.02 85 983.4
20220520200050 59 226 3.0 7.0 0.00 0.02 0.02 85 983.5
20220520195550 59 196 4.0 11.0 0.00 0.02 0.02 85 983.5
20220520195049 59 216 5.0 11.0 0.00 0.02 0.02 85 983.4
20220520194550 59 190 5.0 9.0 0.00 0.02 0.02 84 983.5
20220520194048 60 207 4.0 7.0 0.00 0.02 0.02 85 983.4
20220520193551 60 221 4.0 7.0 0.00 0.02 0.02 84 983.4
20220520193051 60 237 3.0 10.0 0.00 0.02 0.02 84 983.4
20220520192551 60 231 5.0 10.0 0.00 0.02 0.02 84 983.3
20220520192048 60 231 3.0 7.0 0.00 0.02 0.02 84 983.3
20220520191553 60 229 3.0 10.0 0.00 0.02 0.02 85 983.3
20220520191048 60 199 3.0 11.0 0.00 0.02 0.02 85 983.3
20220520190548 60 223 4.0 8.0 0.00 0.02 0.02 84 983.3
20220520190047 60 274 3.0 8.0 0.00 0.02 0.02 84 983.3
20220520185547 60 230 3.0 8.0 0.00 0.02 0.02 84 983.3
20220520185051 60 232 2.0 5.0 0.00 0.02 0.02 85 983.3
20220520184555 60 219 3.0 6.0 0.00 0.02 0.02 85 983.2
20220520184050 60 219 2.0 6.0 0.00 0.02 0.02 85 983.3
20220520183547 60 229 3.0 5.0 0.00 0.02 0.02 86 983.3
20220520183046 60 200 2.0 5.0 0.00 0.02 0.02 86 983.3
20220520182547 59 230 2.0 5.0 0.00 0.02 0.02 86 983.3
20220520182047 59 202 2.0 5.0 0.00 0.02 0.02 87 983.4
20220520181546 59 219 3.0 5.0 0.00 0.02 0.02 86 983.3
20220520181044 59 223 2.0 6.0 0.00 0.02 0.02 87 983.3
20220520180544 60 204 2.0 8.0 0.00 0.02 0.02 86 983.3
20220520180043 60 248 4.0 8.0 0.00 0.02 0.02 85 983.3
20220520175543 60 200 4.0 9.0 0.00 0.02 0.02 86 983.1
20220520175042 61 159 3.0 9.0 0.00 0.02 0.02 87 983.2
20220520174543 60 168 4.0 9.0 0.00 0.02 0.02 87 983.2
20220520174045 60 205 4.0 8.0 0.00 0.02 0.02 88 983.2
20220520174026 60 195 3.0 8.0 0.00 0.02 0.02 88 983.2
20220520173540 60 176 4.0 8.0 0.00 0.02 0.02 89 983.1
20220520173039 60 147 2.0 7.0 0.00 0.02 0.02 89 983.1
20220520172537 59 179 3.0 7.0 0.00 0.02 0.02 92 983.2
20220520172038 59 158 4.0 9.0 0.00 0.02 0.02 91 983.1
20220520171536 58 126 4.0 9.0 0.00 0.02 0.02 92 983.1
20220520171036 58 142 5.0 11.0 0.00 0.02 0.02 92 983.1
20220520170536 58 194 2.0 7.0 0.00 0.02 0.02 94 983.1
20220520170037 58 173 2.0 7.0 0.00 0.02 0.02 95 983.1
20220520165534 58 179 4.0 7.0 0.00 0.02 0.02 95 983.1
20220520165038 57 165 4.0 7.0 0.00 0.02 0.02 95 983.0
20220520164533 57 178 3.0 6.0 0.00 0.02 0.02 95 983.1
20220520164033 57 194 2.0 5.0 0.00 0.02 0.02 95 983.2
20220520163533 57 196 2.0 4.0 0.00 0.02 0.02 95 983.2
20220520163031 56 194 3.0 4.0 0.00 0.02 0.02 95 983.3
20220520162531 56 197 1.0 4.0 0.00 0.02 0.02 95 983.3
20220520162030 57 201 2.0 5.0 0.01 0.02 0.02 95 983.2
20220520161532 56 206 1.0 5.0 0.01 0.02 0.02 95 983.2
20220520161028 56 178 2.0 5.0 0.01 0.02 0.02 95 983.3
20220520160529 56 179 2.0 8.0 0.01 0.02 0.02 95 983.2
20220520160028 56 190 3.0 8.0 0.01 0.02 0.02 95 983.2
20220520155527 56 189 2.0 6.0 0.01 0.02 0.02 96 983.2
20220520155026 56 191 3.0 5.0 0.01 0.02 0.02 95 983.0
20220520154532 56 192 2.0 4.0 0.01 0.02 0.02 95 983.1
20220520154029 56 192 2.0 5.0 0.01 0.02 0.02 95 983.1
20220520153525 56 196 1.0 4.0 0.01 0.02 0.02 96 983.0
20220520153025 56 197 1.0 3.0 0.01 0.02 0.02 95 983.1
20220520152524 56 197 1.0 4.0 0.01 0.02 0.02 95 983.0
20220520152021 56 198 2.0 4.0 0.00 0.01 0.01 95 982.9
20220520151528 56 198 2.0 4.0 0.00 0.01 0.01 95 983.0
20220520151022 56 184 2.0 4.0 0.00 0.01 0.01 95 982.9
20220520150520 56 183 0.0 4.0 0.00 0.01 0.01 95 982.8
20220520150020 56 183 0.0 4.0 0.00 0.01 0.01 96 982.9
20220520145522 55 183 1.0 3.0 0.00 0.01 0.01 95 982.7
20220520145019 55 183 1.0 4.0 0.00 0.01 0.01 95 982.8
20220520144519 55 183 1.0 4.0 0.00 0.01 0.01 95 982.7
20220520144018 55 183 2.0 4.0 0.00 0.01 0.01 95 982.7
20220520143516 55 184 0.0 3.0 0.00 0.01 0.01 95 982.7
20220520143015 55 184 0.0 0.0 0.00 0.01 0.01 95 982.7
20220520142514 55 184 0.0 0.0 0.00 0.01 0.01 95 982.7
20220520142014 55 184 0.0 2.0 0.00 0.01 0.01 95 982.7
20220520141515 55 184 0.0 3.0 0.00 0.01 0.01 95 982.7
20220520141013 55 184 1.0 3.0 0.00 0.01 0.01 95 982.6
20220520140520 55 184 0.0 3.0 0.00 0.01 0.01 95 982.5
20220520140011 55 184 0.0 3.0 0.00 0.01 0.01 95 982.5
20220520135512 55 184 0.0 3.0 0.00 0.01 0.01 95 982.4
20220520135014 55 184 0.0 0.0 0.00 0.01 0.01 95 982.5
20220520134520 55 184 0.0 0.0 0.00 0.01 0.01 95 982.3
20220520134012 55 184 0.0 0.0 0.01 0.01 0.01 95 982.2
20220520133509 55 184 0.0 3.0 0.01 0.01 0.01 95 982.1
20220520133009 55 184 0.0 3.0 0.01 0.01 0.01 95 982.1
20220520132509 55 184 1.0 3.0 0.01 0.01 0.01 95 982.1
20220520132009 55 184 0.0 3.0 0.01 0.01 0.01 95 982.0
20220520131507 55 184 0.0 3.0 0.01 0.01 0.01 95 982.0
20220520131007 55 184 0.0 3.0 0.01 0.01 0.01 95 981.9
20220520130511 55 184 0.0 3.0 0.01 0.01 0.01 95 981.8
20220520130007 55 183 1.0 3.0 0.01 0.01 0.01 94 981.8
20220520125507 55 183 1.0 3.0 0.01 0.01 0.01 94 981.8
20220520125008 55 182 0.0 3.0 0.01 0.01 0.01 94 981.8
20220520124506 55 183 1.0 3.0 0.00 0.00 0.00 94 981.8
20220520124009 55 183 0.0 4.0 0.00 0.00 0.00 94 981.9
20220520123506 55 183 1.0 4.0 0.00 0.00 0.00 94 981.8
20220520123009 55 183 1.0 4.0 0.00 0.00 0.00 94 981.8
20220520122504 55 182 1.0 4.0 0.00 0.00 0.00 94 981.8
20220520122004 55 182 1.0 4.0 0.00 0.00 0.00 94 981.8
20220520121504 55 171 2.0 4.0 0.00 0.00 0.00 94 981.8
20220520121004 55 171 2.0 6.0 0.00 0.00 0.00 94 981.8
20220520120503 56 169 1.0 4.0 0.00 0.00 0.00 94 981.9
20220520120010 55 169 0.0 3.0 0.00 0.00 0.00 94 981.8
20220520115502 56 169 0.0 3.0 0.00 0.00 0.00 94 981.9
20220520115002 56 169 0.0 2.0 0.00 0.00 0.00 94 981.9
20220520114502 56 169 0.0 3.0 0.00 0.00 0.00 94 981.9
20220520114003 56 169 0.0 4.0 0.00 0.00 0.00 94 982.0
20220520113503 56 169 0.0 3.0 0.00 0.00 0.00 94 981.9
20220520113001 56 169 0.0 3.0 0.00 0.00 0.00 94 982.0
20220520112505 56 169 1.0 3.0 0.00 0.00 0.00 93 982.0
20220520112100 56 169 0.0 2.0 0.00 0.00 0.00 93 982.0
20220520111604 56 169 0.0 5.0 0.00 0.00 0.00 93 982.1
20220520111059 56 169 0.0 5.0 0.00 0.00 0.00 93 982.1
20220520110559 56 169 0.0 3.0 0.00 0.00 0.00 93 982.0
20220520110059 56 169 1.0 6.0 0.00 0.00 0.00 93 982.0
20220520105559 56 169 1.0 6.0 0.00 0.00 0.00 93 982.1
20220520105101 56 169 1.0 4.0 0.00 0.00 0.00 93 982.1
20220520104559 56 169 1.0 4.0 0.00 0.00 0.00 93 982.1
20220520104058 56 169 0.0 2.0 0.00 0.00 0.00 93 982.2
20220520103558 56 169 0.0 3.0 0.00 0.00 0.00 93 982.2
20220520103057 56 169 1.0 5.0 0.00 0.00 0.00 92 982.1
20220520102559 56 169 2.0 6.0 0.00 0.00 0.00 92 982.1
20220520102055 56 169 2.0 6.0 0.00 0.00 0.00 92 982.2
20220520101554 56 178 1.0 5.0 0.00 0.00 0.00 92 982.2
20220520101054 56 177 1.0 5.0 0.00 0.00 0.00 92 982.2
20220520100553 57 177 1.0 6.0 0.00 0.00 0.00 91 982.2
20220520100052 57 177 1.0 6.0 0.00 0.00 0.00 91 982.3
20220520095552 57 213 0.0 0.0 0.00 0.00 0.00 91 982.2
20220520095052 57 213 0.0 0.0 0.00 0.00 0.00 91 982.3
20220520094553 57 213 0.0 0.0 0.00 0.00 0.00 91 982.3
20220520094054 57 213 0.0 0.0 0.00 0.00 0.00 90 982.2
20220520093550 57 213 0.0 0.0 0.00 0.00 0.00 90 982.3
20220520093049 57 213 0.0 0.0 0.00 0.00 0.00 90 982.4
20220520092548 57 213 0.0 0.0 0.00 0.00 0.00 90 982.3
20220520092051 57 213 0.0 0.0 0.00 0.00 0.00 90 982.4
20220520091547 57 213 0.0 0.0 0.00 0.00 0.00 89 982.5
20220520091047 57 213 0.0 0.0 0.00 0.00 0.00 89 982.5
20220520090548 57 213 0.0 0.0 0.00 0.00 0.00 89 982.6
20220520090046 58 213 0.0 0.0 0.00 0.00 0.00 88 982.6
20220520085552 58 217 0.0 0.0 0.00 0.00 0.00 88 982.6
20220520085050 58 217 0.0 0.0 0.00 0.00 0.00 87 982.7
20220520084547 58 222 0.0 0.0 0.00 0.00 0.00 87 982.8
20220520084044 58 232 0.0 0.0 0.00 0.00 0.00 86 982.7
20220520083545 58 240 0.0 0.0 0.00 0.00 0.00 86 982.8
20220520083044 58 240 0.0 0.0 0.00 0.00 0.00 86 982.8
20220520082543 58 244 0.0 0.0 0.00 0.00 0.00 86 982.8
20220520082044 58 244 0.0 0.0 0.00 0.00 0.00 86 982.8
20220520081544 58 244 0.0 0.0 0.00 0.00 0.00 86 982.9
20220520081044 59 251 0.0 0.0 0.00 0.00 0.00 86 982.9
20220520080545 59 251 0.0 0.0 0.00 0.00 0.00 86 982.9
20220520080042 59 251 0.0 0.0 0.00 0.00 0.00 86 982.9
20220520075543 59 251 0.0 0.0 0.00 0.00 0.00 86 983.0
20220520075041 59 251 0.0 0.0 0.00 0.00 0.00 86 983.1
20220520074542 59 251 0.0 0.0 0.00 0.00 0.00 86 983.0
20220520074041 59 251 0.0 0.0 0.00 0.00 0.00 86 983.1
20220520073545 59 251 0.0 0.0 0.00 0.00 0.00 86 983.0
20220520073039 58 251 0.0 0.0 0.00 0.00 0.00 86 983.1
20220520072539 58 251 0.0 0.0 0.00 0.00 0.00 86 983.2
20220520072040 58 251 0.0 0.0 0.00 0.00 0.00 87 983.2
20220520071538 58 251 0.0 0.0 0.00 0.00 0.00 87 983.2
20220520071044 58 251 0.0 2.0 0.00 0.00 0.00 87 983.1
20220520070537 58 251 0.0 3.0 0.00 0.00 0.00 87 983.2
20220520070036 58 251 1.0 3.0 0.00 0.00 0.00 87 983.3
20220520065538 58 250 0.0 1.0 0.00 0.00 0.00 87 983.3
20220520065036 58 250 0.0 2.0 0.00 0.00 0.00 87 983.3
20220520064544 58 250 0.0 2.0 0.00 0.00 0.00 87 983.4
20220520064036 58 250 0.0 3.0 0.00 0.00 0.00 87 983.3
20220520063535 58 250 0.0 2.0 0.00 0.00 0.00 87 983.5
20220520063051 58 250 1.0 2.0 0.00 0.00 0.00 87 983.4
20220520062536 58 251 0.0 0.0 0.00 0.00 0.00 87 983.4
20220520062035 58 251 0.0 1.0 0.00 0.00 0.00 87 983.4
20220520061537 58 251 0.0 3.0 0.00 0.00 0.00 87 983.5
20220520061035 58 251 0.0 3.0 0.00 0.00 0.00 87 983.5
20220520060534 58 200 0.0 0.0 0.00 0.00 0.00 87 983.6
20220520060037 58 200 0.0 0.0 0.00 0.00 0.00 87 983.7
20220520055534 58 200 0.0 0.0 0.00 0.00 0.00 87 983.6
20220520055033 58 200 0.0 0.0 0.00 0.00 0.00 87 983.6
20220520054537 58 200 0.0 0.0 0.00 0.00 0.00 87 983.6
20220520054033 57 200 0.0 0.0 0.00 0.00 0.00 87 983.6
20220520053534 58 200 0.0 0.0 0.00 0.00 0.00 87 983.7
20220520053039 57 200 0.0 0.0 0.00 0.00 0.00 87 983.7
20220520052533 57 200 0.0 0.0 0.00 0.00 0.00 87 983.6
20220520052034 57 200 0.0 0.0 0.00 0.00 0.00 87 983.7
20220520051533 57 200 0.0 0.0 0.00 0.00 0.00 87 983.6
20220520051033 57 200 0.0 3.0 0.00 0.00 0.00 87 983.5
20220520050533 57 199 0.0 3.0 0.00 0.00 0.00 87 983.6
20220520050032 57 199 1.0 3.0 0.00 0.00 0.00 87 983.6
20220520045533 57 199 0.0 2.0 0.00 0.00 0.00 87 983.6
20220520045032 57 199 0.0 3.0 0.00 0.00 0.00 87 983.6
20220520044535 57 199 1.0 3.0 0.00 0.00 0.00 87 983.6
20220520044032 57 199 0.0 0.0 0.00 0.00 0.00 87 983.6
20220520043534 57 199 0.0 1.0 0.00 0.00 0.00 87 983.6
20220520043045 57 199 0.0 2.0 0.00 0.00 0.00 87 983.5
20220520042531 57 199 0.0 2.0 0.00 0.00 0.00 87 983.5
20220520042033 57 200 0.0 3.0 0.00 0.00 0.00 87 983.5
20220520041534 57 200 1.0 3.0 0.00 0.00 0.00 87 983.5
20220520041031 57 200 0.0 2.0 0.00 0.00 0.00 87 983.6
20220520040530 57 200 0.0 3.0 0.00 0.00 0.00 87 983.5
20220520040031 57 200 1.0 3.0 0.00 0.00 0.00 87 983.5
20220520035531 57 199 1.0 3.0 0.00 0.00 0.00 87 983.5
20220520035030 57 198 0.0 4.0 0.00 0.00 0.00 87 983.5
20220520034542 57 192 2.0 5.0 0.00 0.00 0.00 87 983.5
20220520034033 57 194 3.0 5.0 0.00 0.00 0.00 87 983.6
20220520033531 57 155 0.0 7.0 0.00 0.00 0.00 87 983.4
20220520033038 57 151 3.0 7.0 0.00 0.00 0.00 87 983.5
20220520032529 57 173 3.0 6.0 0.00 0.00 0.00 87 983.4
20220520032035 57 173 1.0 10.0 0.00 0.00 0.00 87 983.4
20220520031529 57 132 3.0 12.0 0.00 0.00 0.00 87 983.4
20220520031029 57 176 3.0 8.0 0.00 0.00 0.00 87 983.4
20220520030529 57 153 3.0 8.0 0.00 0.00 0.00 87 983.4
20220520030038 57 138 3.0 9.0 0.00 0.00 0.00 87 983.4
20220520025528 57 173 5.0 9.0 0.00 0.00 0.00 86 983.3
20220520025029 58 179 3.0 10.0 0.00 0.00 0.00 86 983.4
20220520024529 58 202 3.0 6.0 0.00 0.00 0.00 86 983.4
20220520024032 58 196 3.0 6.0 0.00 0.00 0.00 86 983.3
20220520023528 58 161 3.0 7.0 0.00 0.00 0.00 85 983.4
20220520023027 58 190 4.0 8.0 0.00 0.00 0.00 85 983.4
20220520022527 58 182 3.0 8.0 0.00 0.00 0.00 85 983.3
20220520022026 58 161 4.0 8.0 0.00 0.00 0.00 84 983.3
20220520021529 59 200 3.0 8.0 0.00 0.00 0.00 83 983.4
20220520021025 59 167 4.0 8.0 0.00 0.00 0.00 83 983.3
20220520020527 59 203 2.0 9.0 0.00 0.00 0.00 82 983.3
20220520020026 60 176 6.0 9.0 0.00 0.00 0.00 80 983.2
20220520015526 61 196 5.0 10.0 0.00 0.00 0.00 79 983.2
20220520015026 62 169 3.0 8.0 0.00 0.00 0.00 78 983.2
20220520014603 62 218 4.0 8.0 0.00 0.00 0.00 77 983.2
20220520014029 63 119 3.0 10.0 0.00 0.00 0.00 77 983.1
20220520013525 63 194 5.0 10.0 0.00 0.00 0.00 77 983.2
20220520013026 63 199 4.0 10.0 0.00 0.00 0.00 77 983.1
20220520012525 63 171 4.0 10.0 0.00 0.00 0.00 76 983.1
20220520012025 64 174 5.0 9.0 0.00 0.00 0.00 76 983.1
20220520011524 63 202 3.0 11.0 0.00 0.00 0.00 76 983.1
20220520011024 63 169 4.0 11.0 0.00 0.00 0.00 76 983.1
20220520010524 64 173 5.0 12.0 0.00 0.00 0.00 75 983.1
20220520010024 64 149 6.0 12.0 0.00 0.00 0.00 75 983.3
20220520005523 65 161 6.0 11.0 0.00 0.00 0.00 74 983.2
20220520005023 66 187 5.0 10.0 0.00 0.00 0.00 73 983.2
20220520004523 66 206 3.0 9.0 0.00 0.00 0.00 73 983.3
20220520004028 66 158 3.0 12.0 0.00 0.00 0.00 73 983.3
20220520003534 66 159 3.0 12.0 0.00 0.00 0.00 73 983.3
20220520003039 66 173 4.0 12.0 0.00 0.00 0.00 73 983.4
20220520002522 66 168 5.0 12.0 0.00 0.00 0.00 72 983.2
20220520002025 66 202 4.0 10.0 0.00 0.00 0.00 72 983.3
20220520001522 67 190 5.0 10.0 0.00 0.00 0.00 72 983.3
20220520001021 67 198 6.0 10.0 0.00 0.00 0.00 71 983.3
20220520000525 67 163 3.0 13.0 0.00 0.00 0.00 72 983.3
20220520000035 67 165 8.0 11.0 0.00 0.00 0.00 71 983.3
20220519235521 68 207 5.0 9.0 0.00 0.00 0.00 70 983.4
20220519235020 68 153 4.0 10.0 0.00 0.00 0.00 70 983.4
20220519234520 68 194 5.0 10.0 0.00 0.00 0.00 70 983.4
20220519234020 68 79 5.0 11.0 0.00 0.00 0.00 70 983.5
20220519233520 67 175 5.0 12.0 0.00 0.00 0.00 70 983.6
20220519233036 68 151 7.0 12.0 0.00 0.00 0.00 69 983.6
20220519232519 68 143 3.0 15.0 0.00 0.00 0.00 69 983.7
20220519232017 68 184 9.0 15.0 0.00 0.00 0.00 68 983.7
20220519231518 68 175 4.0 11.0 0.00 0.00 0.00 69 983.8
20220519231018 68 150 7.0 13.0 0.00 0.00 0.00 68 983.8
20220519230518 69 179 5.0 13.0 0.00 0.00 0.00 67 984.0
20220519230023 69 146 6.0 13.0 0.00 0.00 0.00 67 983.9
20220519225518 69 148 5.0 11.0 0.00 0.00 0.00 67 983.9